User: anonymous   Login
Location: Unspecified
(0.0000°N, 0.0000°E)
Time: 22:43:56
(UTC+00:00)
Language:

STARLINK-3922 - Orbit

View from above orbital plane
View from above orbital plane
View from above satellite
View from above satellite

Ground track
Ground track

The orbit is defined by the following mean orbital elements,

1 52584U          26145.38388317 +.00000000 +00000-0 +24533-4 0 00007
2 52584  53.2152 134.8265 0001404  40.3044 319.8052 15.08845945    04
Epoch (UTC): 25 May 2026 09:12:47
Eccentricity: 0.0001404
inclination: 53.2152°
perigee height: 539 km
apogee height: 541 km
right ascension of ascending node: 134.8265°
argument of perigee: 40.3044°
revolutions per day: 15.08845945
mean anomaly at epoch: 319.8052°

The dashed part of the orbit path shows where the satellite is in the earth's shadow,  

DLR